Location: Apple Hill Campground
(44.2915°N, 71.6726°W)
Time: 21:44:21
(UTC+00:00)

BlueWalker 3 - Pass Details

Date: 12 October 2024
Orbit: 470 x 481 km, 53.2° (Epoch: 11 November)

Event Time Altitude Azimuth Distance (km) Brightness Sun altitude
Exits shadow 09:42:34 15° 317° (NW) 1,356 3.8 -14.4°
Maximum altitude 09:44:22 20° 354° (N) 1,128 3.7 -14.0°
Drops below altitude 10° 09:47:12 10° 45° (NE) 1,635 5.2 -13.5°
Sets 09:49:46 0° 62° (ENE) 2,514 6.7 -13.1°
